When you browse on this site, cookies collect data to enhance your experience and personalize the content and advertising you see.
Visit our Privacy Policy to learn more. By continuing to use the site, you agree to this use of cookies and data.
  • în România
  • Lista ţărilor
  • Pe 7 zile
  • Temperatura apei
  • Meteo pe hartă
  • Widget-uri
  • user-avatar
    Intrare

    Meteo pe oră la Colón

    Astăzi, 4 Iunie, Joi

    Timp Temperatura Precipitaţii Vânt Presiune Umiditate
    00:00 +27°C° 0 mm 3 m/s 757 mmHg 93%
    01:00 +27°C° 0 mm 3 m/s 757 mmHg 94%
    02:00 +27°C° 0 mm 3 m/s 757 mmHg 94%
    03:00 +26°C° 0 mm 3 m/s 756 mmHg 94%
    04:00 +26°C° 0 mm 3 m/s 756 mmHg 94%
    05:00 +27°C° 0 mm 3 m/s 756 mmHg 93%
    06:00 +27°C° 0 mm 4 m/s 756 mmHg 92%
    07:00 +27°C° 0 mm 3 m/s 757 mmHg 90%
    08:00 +29°C° 0 mm 3 m/s 757 mmHg 83%
    09:00 +30°C° 0 mm 3 m/s 757 mmHg 76%
    10:00 +33°C° 0 mm 3 m/s 757 mmHg 69%
    11:00 +34°C° 0 mm 2 m/s 757 mmHg 66%
    12:00 +35°C° 0 mm 2 m/s 756 mmHg 64%
    13:00 +34°C° 0 mm 1 m/s 756 mmHg 62%
    14:00 +35°C° 0.4 mm 2 m/s 755 mmHg 65%
    15:00 +34°C° 0.4 mm 3 m/s 755 mmHg 69%
    16:00 +33°C° 0.4 mm 3 m/s 754 mmHg 72%
    17:00 +31°C° 0.8 mm 3 m/s 755 mmHg 78%
    18:00 +30°C° 0.8 mm 3 m/s 755 mmHg 83%
    19:00 +28°C° 0.8 mm 3 m/s 755 mmHg 89%
    20:00 +28°C° 0.7 mm 3 m/s 756 mmHg 90%
    21:00 +28°C° 0.7 mm 3 m/s 757 mmHg 91%
    22:00 +27°C° 0.7 mm 3 m/s 757 mmHg 92%
    23:00 +27°C° 0 mm 3 m/s 757 mmHg 92%

    Mâine, 5 Iunie, Vineri

    Timp Temperatura Precipitaţii Vânt Presiune Umiditate
    00:00 +27°C° 0 mm 2 m/s 757 mmHg 93%
    01:00 +27°C° 0 mm 2 m/s 757 mmHg 93%
    02:00 +26°C° 0 mm 2 m/s 757 mmHg 94%
    03:00 +26°C° 0 mm 1 m/s 756 mmHg 94%
    04:00 +26°C° 0 mm 1 m/s 756 mmHg 94%
    05:00 +27°C° 0 mm 1 m/s 757 mmHg 93%
    06:00 +27°C° 0 mm 1 m/s 757 mmHg 92%
    07:00 +27°C° 0 mm 1 m/s 757 mmHg 91%
    08:00 +29°C° 0 mm 1 m/s 758 mmHg 84%
    09:00 +31°C° 0 mm 1 m/s 758 mmHg 77%
    10:00 +33°C° 0 mm 1 m/s 758 mmHg 69%
    11:00 +32°C° 0.6 mm 1 m/s 758 mmHg 71%
    12:00 +32°C° 0.6 mm 2 m/s 757 mmHg 73%
    13:00 +32°C° 0.6 mm 2 m/s 757 mmHg 75%
    14:00 +31°C° 1.3 mm 2 m/s 756 mmHg 79%
    15:00 +31°C° 1.3 mm 2 m/s 756 mmHg 82%
    16:00 +30°C° 1.3 mm 2 m/s 756 mmHg 86%
    17:00 +29°C° 0.6 mm 2 m/s 756 mmHg 88%
    18:00 +29°C° 0.6 mm 1 m/s 756 mmHg 90%
    19:00 +28°C° 0.6 mm 1 m/s 756 mmHg 92%
    20:00 +28°C° 0.4 mm 1 m/s 757 mmHg 92%
    21:00 +28°C° 0.4 mm 1 m/s 758 mmHg 92%
    22:00 +25°C° 0.4 mm 0 m/s 758 mmHg 92%
    23:00 +27°C° 0 mm 1 m/s 758 mmHg 93%

    Poimâine, 6 Iunie, Sâmbătă

    Timp Temperatura Precipitaţii Vânt Presiune Umiditate
    00:00 +27°C° 0 mm 1 m/s 758 mmHg 93%
    01:00 +27°C° 0 mm 1 m/s 758 mmHg 94%
    02:00 +27°C° 0.2 mm 1 m/s 757 mmHg 94%
    03:00 +27°C° 0.2 mm 1 m/s 757 mmHg 94%
    04:00 +27°C° 0.2 mm 1 m/s 757 mmHg 95%
    05:00 +27°C° 0 mm 1 m/s 757 mmHg 94%
    06:00 +27°C° 0 mm 1 m/s 757 mmHg 94%
    07:00 +27°C° 0 mm 1 m/s 757 mmHg 93%
    08:00 +29°C° 0.7 mm 1 m/s 758 mmHg 89%
    09:00 +30°C° 0.7 mm 2 m/s 758 mmHg 85%
    10:00 +31°C° 0.7 mm 2 m/s 759 mmHg 82%
    11:00 +31°C° 0.8 mm 3 m/s 758 mmHg 81%
    12:00 +31°C° 0.8 mm 3 m/s 758 mmHg 80%
    13:00 +33°C° 0.8 mm 3 m/s 757 mmHg 79%
    14:00 +31°C° 0.9 mm 3 m/s 757 mmHg 80%
    15:00 +31°C° 0.9 mm 3 m/s 756 mmHg 82%
    16:00 +30°C° 0.9 mm 3 m/s 756 mmHg 83%
    17:00 +30°C° 1 mm 2 m/s 756 mmHg 86%
    18:00 +29°C° 1 mm 2 m/s 756 mmHg 88%
    19:00 +28°C° 1 mm 1 m/s 757 mmHg 91%
    20:00 +28°C° 0 mm 1 m/s 757 mmHg 91%
    21:00 +28°C° 0 mm 1 m/s 758 mmHg 91%
    22:00 +28°C° 0 mm 1 m/s 758 mmHg 91%
    23:00 +27°C° 0.1 mm 1 m/s 758 mmHg 92%

    7 Iunie, Duminică

    Timp Temperatura Precipitaţii Vânt Presiune Umiditate
    00:00 +27°C° 0.1 mm 1 m/s 758 mmHg 92%
    01:00 +27°C° 0.1 mm 1 m/s 757 mmHg 93%
    02:00 +27°C° 0 mm 2 m/s 757 mmHg 93%
    03:00 +27°C° 0 mm 2 m/s 757 mmHg 93%
    04:00 +26°C° 0 mm 2 m/s 757 mmHg 94%
    05:00 +27°C° 0 mm 2 m/s 757 mmHg 93%
    06:00 +27°C° 0 mm 2 m/s 757 mmHg 91%
    07:00 +27°C° 0 mm 2 m/s 757 mmHg 90%
    08:00 +29°C° 0 mm 1 m/s 758 mmHg 83%
    09:00 +31°C° 0 mm 1 m/s 758 mmHg 75%
    10:00 +33°C° 0 mm 1 m/s 759 mmHg 67%
    11:00 +32°C° 1 mm 1 m/s 758 mmHg 70%
    12:00 +32°C° 1 mm 1 m/s 758 mmHg 73%
    13:00 +32°C° 1 mm 1 m/s 758 mmHg 76%
    14:00 +31°C° 1.5 mm 2 m/s 757 mmHg 79%
    15:00 +30°C° 1.5 mm 2 m/s 756 mmHg 83%
    16:00 +29°C° 1.5 mm 2 m/s 756 mmHg 87%
    17:00 +29°C° 0.1 mm 2 m/s 756 mmHg 88%
    18:00 +28°C° 0.1 mm 2 m/s 756 mmHg 90%
    19:00 +28°C° 0.1 mm 2 m/s 757 mmHg 91%
    20:00 +28°C° 0 mm 1 m/s 757 mmHg 91%
    21:00 +27°C° 0 mm 1 m/s 758 mmHg 92%
    22:00 +27°C° 0 mm 1 m/s 758 mmHg 92%
    23:00 +27°C° 0 mm 1 m/s 758 mmHg 92%

    8 Iunie, Luni

    Timp Temperatura Precipitaţii Vânt Presiune Umiditate
    00:00 +27°C° 0 mm 1 m/s 758 mmHg 92%
    01:00 +27°C° 0 mm 1 m/s 757 mmHg 93%
    02:00 +27°C° 0 mm 1 m/s 757 mmHg 93%
    03:00 +27°C° 0 mm 1 m/s 757 mmHg 93%
    04:00 +26°C° 0 mm 2 m/s 757 mmHg 93%
    05:00 +27°C° 0 mm 2 m/s 758 mmHg 93%
    06:00 +27°C° 0 mm 2 m/s 758 mmHg 93%
    07:00 +27°C° 0 mm 2 m/s 758 mmHg 92%
    08:00 +28°C° 0.3 mm 2 m/s 759 mmHg 88%
    09:00 +29°C° 0.3 mm 2 m/s 759 mmHg 84%
    10:00 +31°C° 0.3 mm 2 m/s 759 mmHg 80%
    11:00 +30°C° 1.3 mm 2 m/s 759 mmHg 83%
    12:00 +30°C° 1.3 mm 2 m/s 759 mmHg 85%
    13:00 +29°C° 1.3 mm 2 m/s 758 mmHg 87%
    14:00 +28°C° 0.5 mm 2 m/s 758 mmHg 90%
    15:00 +28°C° 0.5 mm 3 m/s 757 mmHg 92%
    16:00 +27°C° 0.5 mm 3 m/s 757 mmHg 94%
    17:00 +27°C° 0 mm 3 m/s 757 mmHg 94%
    18:00 +27°C° 0 mm 2 m/s 757 mmHg 94%
    19:00 +27°C° 0 mm 2 m/s 757 mmHg 94%
    20:00 +27°C° 0 mm 2 m/s 757 mmHg 94%
    21:00 +27°C° 0 mm 2 m/s 757 mmHg 94%
    22:00 +27°C° 0 mm 2 m/s 758 mmHg 94%
    23:00 +27°C° 0 mm 2 m/s 758 mmHg 94%

    9 Iunie, Marţi

    Timp Temperatura Precipitaţii Vânt Presiune Umiditate
    00:00 +27°C° 0 mm 2 m/s 758 mmHg 94%
    01:00 +26°C° 0 mm 2 m/s 758 mmHg 94%
    02:00 +26°C° 0 mm 2 m/s 757 mmHg 94%
    03:00 +26°C° 0 mm 2 m/s 757 mmHg 95%
    04:00 +26°C° 0 mm 2 m/s 757 mmHg 95%
    05:00 +26°C° 0 mm 2 m/s 757 mmHg 94%
    06:00 +27°C° 0 mm 2 m/s 757 mmHg 94%
    07:00 +27°C° 0 mm 2 m/s 758 mmHg 93%
    08:00 +29°C° 0.2 mm 2 m/s 758 mmHg 86%
    09:00 +30°C° 0.2 mm 2 m/s 758 mmHg 79%
    10:00 +32°C° 0.2 mm 2 m/s 759 mmHg 72%
    11:00 +34°C° 0.2 mm 2 m/s 758 mmHg 68%
    12:00 +34°C° 0.2 mm 2 m/s 758 mmHg 64%
    13:00 +34°C° 0.2 mm 1 m/s 757 mmHg 60%
    14:00 +33°C° 2.1 mm 1 m/s 757 mmHg 64%
    15:00 +33°C° 2.1 mm 1 m/s 756 mmHg 68%
    16:00 +32°C° 2.1 mm 1 m/s 756 mmHg 72%
    17:00 +31°C° 1.8 mm 1 m/s 756 mmHg 77%
    18:00 +30°C° 1.8 mm 1 m/s 756 mmHg 82%
    19:00 +28°C° 1.8 mm 1 m/s 756 mmHg 87%
    20:00 +28°C° 0 mm 1 m/s 757 mmHg 88%
    21:00 +27°C° 0 mm 1 m/s 757 mmHg 90%
    22:00 +27°C° 0 mm 2 m/s 757 mmHg 92%
    23:00 +27°C° 0 mm 2 m/s 757 mmHg 92%
    Arată mai mult